This is the latest recevied weather packets stored in our database for station/object OK1JRA-6. If no packets are shown the sender has not sent any weather packets the latest 10 day(s).
| Time | Temp. | Humidity | Pressure | Rain* | Wind** | Luminosity | Snow |
|---|---|---|---|---|---|---|---|
| 1778103046 | 12.22° C | 83% | 1008.2 hPa | 0 mm | - | - | - |
| 1778102740 | 12.78° C | 83% | 1008.2 hPa | 0 mm | - | - | - |
| 1778102434 | 12.78° C | 83% | 1008.1 hPa | 0 mm | - | - | - |
| 1778102128 | 12.78° C | 83% | 1008.1 hPa | 0 mm | - | - | - |
| 1778101822 | 12.78° C | 83% | 1008.2 hPa | 0 mm | - | - | - |
| 1778101515 | 12.78° C | 83% | 1008.2 hPa | 0 mm | - | - | - |
| 1778101209 | 12.78° C | 83% | 1008 hPa | 0.25 mm | - | - | - |
| 1778100903 | 12.78° C | 82% | 1008 hPa | 0.51 mm | - | - | - |
| 1778100597 | 12.78° C | 81% | 1007.3 hPa | 0.76 mm | - | - | - |
| 1778099985 | 12.78° C | 81% | 1007.2 hPa | 1.52 mm | - | - | - |
| 1778099679 | 13.33° C | 80% | 1007.1 hPa | 1.52 mm | - | - | - |
| 1778099372 | 13.33° C | 80% | 1007 hPa | 2.03 mm | - | - | - |
| 1778098454 | 13.33° C | 79% | 1007.1 hPa | 5.08 mm | - | - | - |
| 1778098148 | 13.33° C | 79% | 1007.2 hPa | 5.08 mm | - | - | - |
| 1778097841 | 13.33° C | 78% | 1007.2 hPa | 5.08 mm | - | - | - |
| 1778097535 | 13.33° C | 78% | 1007.1 hPa | 4.83 mm | - | - | - |
| 1778096602 | 13.89° C | 77% | 1007.4 hPa | 3.81 mm | - | - | - |
| 1778096290 | 13.89° C | 76% | 1007.4 hPa | 3.56 mm | - | - | - |
| 1778095984 | 13.89° C | 75% | 1007.4 hPa | 3.56 mm | - | - | - |
| 1778095662 | 14.44° C | 73% | 1007.5 hPa | 3.05 mm | - | - | - |
| 1778095318 | 15° C | 71% | 1007.4 hPa | 2.29 mm | - | - | - |
| 1778094945 | 15.56° C | 62% | 1007.3 hPa | 0 mm | - | - | - |
| 1778094642 | 15.56° C | 64% | 1006.8 hPa | 0 mm | - | - | - |
| 1778094642 | 15.56° C | 64% | 1006.8 hPa | 0 mm | - | - | - |
| 1778094642 | 15.56° C | 64% | 1006.8 hPa | 0 mm | - | - | - |
* Rain latest hour (hover to see other rain measurements)
** Current wind speed in m/s (hover to see current wind gust speed)